{"data":{"norad_id":48583,"epoch":"2026-05-25T00:31:23.323872Z","epoch_age_seconds":72870,"freshness":"FRESH","line1":"1 48583U 21041AG  26145.02179773  .00000944  00000+0  42188-4 0  9993","line2":"2 48583  53.1612 153.9650 0001423  79.5616 280.5545 15.31693678276644","mean_motion":15.31693678,"eccentricity":0.0001423,"inclination_deg":53.1612,"raan_deg":153.965,"arg_perigee_deg":79.5616,"mean_anomaly_deg":280.5545,"bstar":4.2188e-5,"rev_number":27664,"period_min":94.013575996492,"perigee_km":469.78424296534,"apogee_km":471.73343872165,"semimajor_km":6848.8958408435,"source":"CELESTRAK","updated_at":"2026-05-25T13:38:16.750169Z"}}